AFR85HU LFST-LFPO

Flight info

Callsign AFR85HU
Flight time 0h 47m
Altitude 24000
Route POGOL RLP
Aircraft A321/M-SDE2FGHIRWXY/LB1

Departure

Time 2026-05-07 15:24
Airport Strasbourg Airport (LFST)

Arrival

Time 2026-05-07 16:11
Airport Paris-Orly Airport (LFPO)
Time Latitude Longitude Altitude Speed Heading
2026-05-07 14:59 48.54391 7.62829 512 ft 0 kts 319°
2026-05-07 15:16 48.54388 7.62833 512 ft 3 kts 319°
2026-05-07 15:16 48.54368 7.62860 512 ft 4 kts 319°
2026-05-07 15:17 48.54347 7.62884 512 ft 4 kts 336°
2026-05-07 15:17 48.54328 7.62889 512 ft 4 kts 45°
2026-05-07 15:17 48.54317 7.62871 512 ft 0 kts 49°
2026-05-07 15:19 48.54322 7.62879 512 ft 4 kts 49°
2026-05-07 15:19 48.54359 7.62944 512 ft 12 kts 49°
2026-05-07 15:19 48.54383 7.63061 512 ft 12 kts 119°
2026-05-07 15:20 48.54328 7.63143 512 ft 10 kts 139°
2026-05-07 15:20 48.54305 7.63231 512 ft 9 kts 73°
2026-05-07 15:20 48.54341 7.63302 512 ft 8 kts 49°
2026-05-07 15:20 48.54376 7.63361 512 ft 7 kts 49°
2026-05-07 15:21 48.54406 7.63413 512 ft 6 kts 49°
2026-05-07 15:21 48.54430 7.63455 512 ft 5 kts 49°
2026-05-07 15:21 48.54449 7.63487 512 ft 3 kts 49°
2026-05-07 15:21 48.54468 7.63520 512 ft 6 kts 49°
2026-05-07 15:22 48.54506 7.63584 512 ft 10 kts 49°
2026-05-07 15:22 48.54563 7.63683 512 ft 15 kts 49°
2026-05-07 15:22 48.54639 7.63817 512 ft 18 kts 56°
2026-05-07 15:22 48.54618 7.63930 512 ft 9 kts 142°
2026-05-07 15:23 48.54572 7.63982 512 ft 9 kts 144°
2026-05-07 15:23 48.54496 7.63969 510 ft 12 kts 232°
2026-05-07 15:23 48.54436 7.63861 510 ft 19 kts 228°
2026-05-07 15:23 48.54187 7.63437 511 ft 90 kts 229°
2026-05-07 15:24 48.53632 7.62478 513 ft 147 kts 229°
2026-05-07 15:24 48.52934 7.61260 995 ft 154 kts 229°
2026-05-07 15:24 48.52215 7.60030 1721 ft 157 kts 231°
2026-05-07 15:24 48.51482 7.58778 2353 ft 161 kts 230°
2026-05-07 15:25 48.50729 7.57499 2956 ft 161 kts 231°
2026-05-07 15:25 48.50184 7.56063 3468 ft 158 kts 265°
2026-05-07 15:25 48.50164 7.54394 3898 ft 166 kts 265°
2026-05-07 15:25 48.49980 7.52563 4105 ft 188 kts 262°
2026-05-07 15:26 48.49752 7.50491 4323 ft 212 kts 261°
2026-05-07 15:26 48.49488 7.48178 4606 ft 236 kts 261°
2026-05-07 15:26 48.49193 7.45618 4933 ft 258 kts 261°
2026-05-07 15:26 48.48880 7.42917 5566 ft 264 kts 260°
2026-05-07 15:27 48.48562 7.40188 6346 ft 266 kts 260°
2026-05-07 15:27 48.48240 7.37432 7081 ft 268 kts 260°
2026-05-07 15:27 48.47912 7.34655 7793 ft 271 kts 259°
2026-05-07 15:27 48.47579 7.31844 8507 ft 274 kts 259°
2026-05-07 15:28 48.47241 7.29006 9213 ft 276 kts 259°
2026-05-07 15:28 48.46900 7.26138 9924 ft 279 kts 259°
2026-05-07 15:28 48.46554 7.23224 10364 ft 291 kts 259°
2026-05-07 15:28 48.46183 7.20118 10488 ft 312 kts 259°
2026-05-07 15:29 48.45781 7.16799 10614 ft 332 kts 259°
2026-05-07 15:29 48.45351 7.13279 10743 ft 350 kts 259°
2026-05-07 15:29 48.44897 7.09587 10869 ft 367 kts 259°
2026-05-07 15:29 48.44424 7.05723 10997 ft 382 kts 259°
2026-05-07 15:30 48.43935 7.01753 11299 ft 390 kts 259°
2026-05-07 15:30 48.43438 6.97714 11722 ft 393 kts 259°
2026-05-07 15:30 48.42938 6.93658 12141 ft 396 kts 259°
2026-05-07 15:30 48.42434 6.89576 12542 ft 399 kts 259°
2026-05-07 15:31 48.41923 6.85446 12950 ft 401 kts 259°
2026-05-07 15:31 48.41412 6.81315 13347 ft 404 kts 259°
2026-05-07 15:31 48.40893 6.77140 13752 ft 406 kts 259°
2026-05-07 15:31 48.40364 6.72946 14105 ft 408 kts 259°
2026-05-07 15:32 48.39823 6.68684 14488 ft 410 kts 259°
2026-05-07 15:32 48.39286 6.64467 14870 ft 412 kts 259°
2026-05-07 15:32 48.38749 6.60227 15253 ft 413 kts 259°
2026-05-07 15:32 48.38214 6.55968 15651 ft 415 kts 259°
2026-05-07 15:33 48.37678 6.51694 16054 ft 417 kts 259°
2026-05-07 15:33 48.37137 6.47398 16464 ft 418 kts 259°
2026-05-07 15:33 48.36591 6.43091 16882 ft 420 kts 259°
2026-05-07 15:33 48.36040 6.38767 17302 ft 422 kts 259°
2026-05-07 15:34 48.35489 6.34460 17713 ft 424 kts 258°
2026-05-07 15:34 48.34925 6.30095 18120 ft 426 kts 258°
2026-05-07 15:34 48.34356 6.25711 18500 ft 428 kts 258°
2026-05-07 15:34 48.33784 6.21312 18847 ft 430 kts 258°
2026-05-07 15:35 48.33210 6.16894 19193 ft 432 kts 258°
2026-05-07 15:35 48.32631 6.12444 19515 ft 434 kts 258°
2026-05-07 15:35 48.31829 6.08068 19831 ft 436 kts 250°
2026-05-07 15:35 48.30560 6.03925 20155 ft 438 kts 240°
2026-05-07 15:36 48.28861 6.00116 20477 ft 440 kts 233°
2026-05-07 15:36 48.27010 5.96446 20801 ft 442 kts 233°
2026-05-07 15:36 48.25150 5.92748 21125 ft 444 kts 233°
2026-05-07 15:36 48.23287 5.89035 21452 ft 446 kts 233°
2026-05-07 15:37 48.21413 5.85311 21777 ft 448 kts 233°
2026-05-07 15:37 48.19532 5.81580 22101 ft 450 kts 233°
2026-05-07 15:37 48.17641 5.77833 22402 ft 451 kts 233°
2026-05-07 15:37 48.15742 5.74076 22689 ft 453 kts 233°
2026-05-07 15:38 48.13837 5.70311 22969 ft 455 kts 233°
2026-05-07 15:38 48.11923 5.66531 23243 ft 456 kts 233°
2026-05-07 15:38 48.10003 5.62748 23488 ft 457 kts 233°
2026-05-07 15:38 48.08075 5.58959 23709 ft 459 kts 233°
2026-05-07 15:39 48.06137 5.55160 23902 ft 460 kts 233°
2026-05-07 15:39 48.04194 5.51359 24012 ft 460 kts 233°
2026-05-07 15:39 48.02254 5.47562 24047 ft 460 kts 233°
2026-05-07 15:39 48.00315 5.43769 24045 ft 460 kts 233°
2026-05-07 15:40 47.99002 5.41203 24047 ft 460 kts 233°
2026-05-07 15:40 47.97058 5.37419 24050 ft 459 kts 233°
2026-05-07 15:40 47.95115 5.33640 24048 ft 459 kts 233°
2026-05-07 15:40 47.93369 5.29645 24047 ft 459 kts 242°
2026-05-07 15:41 47.92102 5.25368 24050 ft 459 kts 251°
2026-05-07 15:41 47.91311 5.20764 24050 ft 459 kts 260°
2026-05-07 15:41 47.91044 5.16022 24050 ft 460 kts 269°
2026-05-07 15:41 47.91218 5.11262 24051 ft 461 kts 273°
2026-05-07 15:42 47.91430 5.06494 24047 ft 461 kts 272°
2026-05-07 15:42 47.91627 5.01735 24047 ft 460 kts 272°
2026-05-07 15:42 47.91816 4.96968 24047 ft 460 kts 272°
2026-05-07 15:42 47.92000 4.92209 24050 ft 460 kts 272°
2026-05-07 15:43 47.92182 4.87447 24048 ft 460 kts 272°
2026-05-07 15:43 47.92364 4.82689 24049 ft 460 kts 272°
2026-05-07 15:43 47.92546 4.77928 24048 ft 460 kts 272°
2026-05-07 15:43 47.92729 4.73173 24050 ft 460 kts 272°
2026-05-07 15:44 47.92912 4.68411 24051 ft 460 kts 272°
2026-05-07 15:44 47.93093 4.63660 24049 ft 459 kts 272°
2026-05-07 15:44 47.93274 4.58904 24045 ft 459 kts 272°
2026-05-07 15:44 47.93454 4.54148 24047 ft 459 kts 272°
2026-05-07 15:45 47.93634 4.49335 24050 ft 459 kts 272°
2026-05-07 15:45 47.93806 4.44576 24046 ft 459 kts 272°
2026-05-07 15:45 47.93974 4.39822 24047 ft 459 kts 272°
2026-05-07 15:45 47.94140 4.35062 24044 ft 459 kts 272°
2026-05-07 15:46 47.94464 4.25554 24046 ft 459 kts 272°
2026-05-07 15:46 47.94624 4.20798 24047 ft 459 kts 272°
2026-05-07 15:46 47.94784 4.16039 24047 ft 459 kts 272°
2026-05-07 15:47 47.94944 4.11288 24044 ft 459 kts 272°
2026-05-07 15:47 47.95103 4.06535 24041 ft 459 kts 272°
2026-05-07 15:47 47.95249 4.02086 23979 ft 458 kts 272°
2026-05-07 15:47 47.95403 3.97370 23051 ft 455 kts 272°
2026-05-07 15:48 47.95554 3.92667 22055 ft 451 kts 272°
2026-05-07 15:48 47.95697 3.88014 21175 ft 447 kts 272°
2026-05-07 15:48 47.95837 3.83418 20359 ft 442 kts 272°
2026-05-07 15:48 47.95974 3.78870 19724 ft 434 kts 272°
2026-05-07 15:49 47.96106 3.74473 19586 ft 414 kts 272°
2026-05-07 15:49 47.96231 3.70276 19460 ft 395 kts 272°
2026-05-07 15:49 47.96345 3.66281 19336 ft 376 kts 272°
2026-05-07 15:49 47.96466 3.62461 19090 ft 363 kts 275°
2026-05-07 15:50 47.96952 3.58800 18621 ft 359 kts 287°
2026-05-07 15:50 47.97963 3.55419 18108 ft 357 kts 300°
2026-05-07 15:50 47.99444 3.52454 17516 ft 357 kts 311°
2026-05-07 15:50 48.01174 3.49816 16952 ft 355 kts 313°
2026-05-07 15:51 48.02901 3.47192 16409 ft 352 kts 313°
2026-05-07 15:51 48.04610 3.44585 15899 ft 350 kts 313°
2026-05-07 15:51 48.06303 3.41995 15399 ft 347 kts 313°
2026-05-07 15:51 48.07984 3.39423 14912 ft 345 kts 313°
2026-05-07 15:52 48.09654 3.36867 14428 ft 342 kts 313°
2026-05-07 15:52 48.11311 3.34327 13955 ft 340 kts 313°
2026-05-07 15:52 48.12978 3.31769 13441 ft 338 kts 313°
2026-05-07 15:52 48.14595 3.29290 12919 ft 336 kts 313°
2026-05-07 15:53 48.16222 3.26788 12704 ft 324 kts 313°
2026-05-07 15:53 48.17740 3.24448 12573 ft 311 kts 312°
2026-05-07 15:53 48.19242 3.22131 12346 ft 302 kts 312°
2026-05-07 15:53 48.20699 3.19885 11988 ft 298 kts 312°
2026-05-07 15:54 48.22140 3.17665 11621 ft 295 kts 312°
2026-05-07 15:54 48.23563 3.15472 11322 ft 293 kts 312°
2026-05-07 15:54 48.24979 3.13285 11010 ft 292 kts 312°
2026-05-07 15:54 48.26391 3.11103 10705 ft 291 kts 312°
2026-05-07 15:55 48.27796 3.08935 10403 ft 290 kts 312°
2026-05-07 15:55 48.29202 3.06769 10116 ft 288 kts 312°
2026-05-07 15:55 48.30597 3.04614 10022 ft 288 kts 312°
2026-05-07 15:55 48.31993 3.02452 10032 ft 289 kts 312°
2026-05-07 15:56 48.33390 3.00283 10044 ft 289 kts 312°
2026-05-07 15:56 48.34788 2.98110 10037 ft 289 kts 312°
2026-05-07 15:56 48.36186 2.95940 10044 ft 289 kts 312°
2026-05-07 15:56 48.37585 2.93766 10042 ft 289 kts 312°
2026-05-07 15:57 48.38986 2.91592 10050 ft 289 kts 312°
2026-05-07 15:57 48.40385 2.89421 10040 ft 289 kts 312°
2026-05-07 15:57 48.41783 2.87247 10043 ft 289 kts 312°
2026-05-07 15:57 48.43180 2.85074 10048 ft 289 kts 312°
2026-05-07 15:58 48.44491 2.82792 9970 ft 288 kts 302°
2026-05-07 15:58 48.45375 2.80100 9467 ft 287 kts 286°
2026-05-07 15:58 48.45722 2.77165 9003 ft 284 kts 271°
2026-05-07 15:58 48.45791 2.74196 8558 ft 283 kts 271°
2026-05-07 15:59 48.45868 2.71242 8134 ft 282 kts 271°
2026-05-07 15:59 48.45951 2.68308 7767 ft 277 kts 272°
2026-05-07 15:59 48.46037 2.65392 7661 ft 275 kts 272°
2026-05-07 15:59 48.46129 2.62524 7535 ft 275 kts 273°
2026-05-07 16:00 48.46258 2.59656 7400 ft 274 kts 274°
2026-05-07 16:00 48.46404 2.56794 7267 ft 273 kts 274°
2026-05-07 16:00 48.46551 2.53950 7128 ft 273 kts 274°
2026-05-07 16:00 48.46702 2.51103 7012 ft 272 kts 274°
2026-05-07 16:01 48.46850 2.48270 6912 ft 272 kts 274°
2026-05-07 16:01 48.46995 2.45428 6823 ft 272 kts 274°
2026-05-07 16:01 48.47136 2.42595 6718 ft 271 kts 274°
2026-05-07 16:01 48.47275 2.39763 6618 ft 271 kts 274°
2026-05-07 16:02 48.47412 2.36934 6519 ft 270 kts 274°
2026-05-07 16:02 48.47548 2.34106 6418 ft 270 kts 274°
2026-05-07 16:02 48.47682 2.31282 6317 ft 270 kts 274°
2026-05-07 16:02 48.47811 2.28463 6209 ft 270 kts 274°
2026-05-07 16:03 48.47939 2.25643 6103 ft 269 kts 274°
2026-05-07 16:03 48.48063 2.22834 6002 ft 269 kts 274°
2026-05-07 16:03 48.48184 2.20016 5896 ft 269 kts 274°
2026-05-07 16:03 48.48305 2.17199 5786 ft 269 kts 274°
2026-05-07 16:04 48.48463 2.14415 5672 ft 262 kts 281°
2026-05-07 16:04 48.49018 2.11870 5487 ft 251 kts 297°
2026-05-07 16:04 48.49963 2.09726 5310 ft 241 kts 312°
2026-05-07 16:04 48.51177 2.08061 5128 ft 233 kts 326°
2026-05-07 16:05 48.52569 2.06901 4948 ft 226 kts 339°
2026-05-07 16:05 48.54052 2.06268 4770 ft 217 kts 352°
2026-05-07 16:05 48.55559 2.06154 4579 ft 212 kts
2026-05-07 16:05 48.57032 2.06248 4394 ft 212 kts
2026-05-07 16:06 48.58504 2.06333 4214 ft 211 kts
2026-05-07 16:06 48.59955 2.06416 4065 ft 205 kts
2026-05-07 16:06 48.61333 2.06510 3973 ft 192 kts
2026-05-07 16:06 48.62581 2.07097 3960 ft 199 kts 28°
2026-05-07 16:07 48.63734 2.08565 3781 ft 234 kts 53°
2026-05-07 16:07 48.64568 2.10739 3468 ft 242 kts 61°
2026-05-07 16:07 48.64715 2.11164 3425 ft 242 kts 62°
2026-05-07 16:08 48.65214 2.12580 3117 ft 245 kts 61°
2026-05-07 16:08 48.66001 2.14826 2861 ft 241 kts 61°
2026-05-07 16:08 48.66794 2.17062 2559 ft 241 kts 60°
2026-05-07 16:08 48.67561 2.19216 2250 ft 219 kts 60°
2026-05-07 16:09 48.68239 2.21121 1949 ft 194 kts 60°
2026-05-07 16:09 48.68849 2.22832 1737 ft 175 kts 60°
2026-05-07 16:09 48.69406 2.24396 1484 ft 165 kts 61°
2026-05-07 16:09 48.69934 2.25881 1246 ft 160 kts 60°
2026-05-07 16:10 48.70445 2.27321 1019 ft 150 kts 61°
2026-05-07 16:10 48.70934 2.28690 825 ft 146 kts 62°
2026-05-07 16:10 48.71411 2.30038 661 ft 146 kts 60°
2026-05-07 16:10 48.71886 2.31369 451 ft 143 kts 63°
2026-05-07 16:11 48.72349 2.32683 307 ft 136 kts 62°
2026-05-07 16:11 48.72722 2.33744 308 ft 87 kts 62°
2026-05-07 16:11 48.72927 2.34326 300 ft 38 kts 62°
2026-05-07 16:11 48.73000 2.34635 299 ft 30 kts 79°
2026-05-07 16:12 48.73028 2.34936 298 ft 28 kts 83°
2026-05-07 16:12 48.73030 2.35211 301 ft 25 kts 121°
2026-05-07 16:12 48.72911 2.35342 302 ft 4 kts 133°
2026-05-07 16:12 48.72881 2.35407 303 ft 14 kts 131°
2026-05-07 16:13 48.72803 2.35448 301 ft 20 kts 175°
2026-05-07 16:13 48.72744 2.35544 300 ft 7 kts 62°
2026-05-07 16:13 48.72773 2.35648 299 ft 15 kts 75°
2026-05-07 16:13 48.72787 2.35763 301 ft 8 kts 109°
2026-05-07 16:14 48.72769 2.35779 301 ft 1 kts 165°
2026-05-07 16:14 48.72765 2.35785 300 ft 0 kts 154°
2026-05-07 16:14 48.72755 2.35786 302 ft 2 kts 171°
2026-05-07 16:14 48.72751 2.35787 302 ft 0 kts 172°
2026-05-07 16:15 48.72750 2.35787 302 ft 0 kts 172°